Weather History for KCHS - March, 2014

Change the Weather History Date:

Sunday, March 2, 2014

  Actual Average Record
Temperature  
Mean Temperature 57 °F 55 °F  
Max Temperature 74 °F 66 °F 85 °F (1976)
Min Temperature 39 °F 44 °F 22 °F (1980)
Degree Days  
Heating Degree Days 8 11  
Month to date heating degree days 21 22  
Since 1 July heating degree days 1544 1658  
Cooling Degree Days 0 0  
Month to date cooling degree days 0 0  
Year to date cooling degree days 10 7  
Growing Degree Days 6 (Base 50)    
Moisture  
Dew Point 42 °F    
Average Humidity 65    
Maximum Humidity 96    
Minimum Humidity 33    
Precipitation  
Precipitation 0.00 in 0.12 in 2.21 in (1994)
Month to date precipitation T 0.23  
Year to date precipitation 4.85 6.90  
Sea Level Pressure  
Sea Level Pressure 30.16 in    
Wind  
Wind Speed 5 mph (SW)    
Max Wind Speed 17 mph    
Max Gust Speed 21 mph    
Visibility 9 miles    
Events Fog    
T = Trace of Precipitation, MM = Missing Value Source: NWS Daily Summary

Daily Weather History Graph

Daily Weather History Graph

Search for Another Location

Airport or City:

Trip Planner

Search our weather history database for the weather conditions in past years. The results will help you decide how hot, cold, wet, or windy it might be!

Date:

Astronomy

Mar. 02, 2014 Rise Set
Actual Time 6:46 AM EST 6:18 PM EST
Civil Twilight 6:22 AM EST 6:42 PM EST
Nautical Twilight 5:53 AM EST 7:11 PM EST
Astronomical Twilight 5:24 AM EST 7:40 PM EST
Moon 7:23 AM EST (3/2) 8:04 PM EST (3/2)
Length of Visible Light 12h 20m
Length of Day
11h 31m
Waxing Crescent, 3% of the Moon is Illuminated
Mar 2
Waxing Crescent
Mar 8
First Quarter
Mar 16
Full
Mar 23
Last Quarter
Mar 30
New

Hourly Weather History & Observations

Time (EST) Temp. Windchill Dew Point Humidity Pressure Visibility Wind Dir Wind Speed Gust Speed Precip Events Conditions
12:56 AM 44.1 °F 42.5 °F 39.9 °F 85% 30.26 in 10.0 mi NNW 3.5 mph - N/A   Clear
1:56 AM 44.1 °F - 41.0 °F 89% 30.24 in 10.0 mi Calm Calm - N/A   Clear
2:56 AM 43.0 °F - 41.0 °F 93% 30.21 in 10.0 mi Calm Calm - N/A   Clear
3:56 AM 43.0 °F - 39.9 °F 89% 30.21 in 7.0 mi Calm Calm - N/A   Clear
4:56 AM 39.9 °F - 37.9 °F 93% 30.21 in 7.0 mi Calm Calm - N/A   Clear
5:56 AM 39.9 °F 37.8 °F 37.0 °F 89% 30.23 in 8.0 mi NNW 3.5 mph - N/A Fog Shallow Fog
6:56 AM 39.0 °F - 37.0 °F 93% 30.23 in 6.0 mi Calm Calm - N/A Fog Shallow Fog
7:56 AM 46.9 °F - 42.1 °F 83% 30.24 in 7.0 mi Calm Calm - N/A   Clear
8:56 AM 54.0 °F - 44.1 °F 69% 30.26 in 8.0 mi NW 3.5 mph - N/A   Clear
9:56 AM 61.0 °F - 46.0 °F 58% 30.25 in 10.0 mi Calm Calm - N/A   Partly Cloudy
10:56 AM 66.0 °F - 42.1 °F 42% 30.23 in 10.0 mi Calm Calm - N/A   Partly Cloudy
11:56 AM 69.1 °F - 39.9 °F 35% 30.20 in 10.0 mi Calm Calm - N/A   Partly Cloudy
12:56 PM 70.0 °F - 39.9 °F 33% 30.17 in 10.0 mi WSW 4.6 mph - N/A   Partly Cloudy
1:56 PM 73.0 °F - 43.0 °F 34% 30.14 in 10.0 mi SSW 6.9 mph - N/A   Partly Cloudy
2:56 PM 72.0 °F - 44.1 °F 37% 30.11 in 10.0 mi South 6.9 mph - N/A   Partly Cloudy
3:56 PM 72.0 °F - 45.0 °F 38% 30.10 in 10.0 mi SSW 12.7 mph - N/A   Partly Cloudy
4:56 PM 69.1 °F - 43.0 °F 39% 30.09 in 10.0 mi SSW 12.7 mph - N/A   Clear
5:56 PM 64.0 °F - 39.0 °F 40% 30.09 in 10.0 mi South 12.7 mph - N/A   Clear
6:56 PM 57.9 °F - 37.0 °F 46% 30.08 in 10.0 mi South 8.1 mph - N/A   Clear
7:56 PM 53.1 °F - 39.0 °F 59% 30.07 in 10.0 mi South 6.9 mph - N/A   Clear
8:56 PM 52.0 °F - 43.0 °F 71% 30.07 in 10.0 mi SSW 8.1 mph - N/A   Clear
9:56 PM 52.0 °F - 46.0 °F 80% 30.06 in 10.0 mi SSW 5.8 mph - N/A   Clear
10:56 PM 53.1 °F - 48.9 °F 86% 30.05 in 10.0 mi SSW 9.2 mph - N/A   Clear
11:56 PM 51.1 °F - 48.0 °F 89% 30.04 in 10.0 mi SSW 5.8 mph - N/A   Clear